• In Hungary
  • List of Countries
  • For 7 days
  • Water Temperature
  • Satellite Maps
  • Weather Map
  • News
  • Weather Widgets
  • user-avatar
    Login

    Hourly Weather Santa Lucía

    Today, 24 February, Saturday

    Time Temperature Precipitation Wind Pressure Humidity
    00:00 +25°C° 0 mm 2 mps 751 mmHg 73%
    01:00 +25°C° 0 mm 2 mps 751 mmHg 72%
    02:00 +25°C° 0 mm 2 mps 750 mmHg 72%
    03:00 +24°C° 0 mm 2 mps 750 mmHg 72%
    04:00 +24°C° 0 mm 2 mps 750 mmHg 72%
    05:00 +24°C° 0 mm 2 mps 750 mmHg 72%
    06:00 +24°C° 0 mm 2 mps 750 mmHg 72%
    07:00 +27°C° 0 mm 2 mps 751 mmHg 63%
    08:00 +29°C° 0 mm 2 mps 751 mmHg 54%
    09:00 +32°C° 0 mm 2 mps 752 mmHg 45%
    10:00 +34°C° 0 mm 2 mps 751 mmHg 43%
    11:00 +35°C° 0 mm 2 mps 751 mmHg 41%
    12:00 +36°C° 0 mm 2 mps 751 mmHg 39%
    13:00 +35°C° 0 mm 2 mps 750 mmHg 42%
    14:00 +34°C° 0 mm 3 mps 749 mmHg 46%
    15:00 +33°C° 0 mm 3 mps 749 mmHg 50%
    16:00 +31°C° 0.1 mm 3 mps 749 mmHg 57%
    17:00 +29°C° 0.1 mm 2 mps 749 mmHg 64%
    18:00 +28°C° 0.1 mm 2 mps 750 mmHg 71%
    19:00 +27°C° 0.2 mm 1 mps 750 mmHg 73%
    20:00 +27°C° 0.2 mm 1 mps 751 mmHg 76%
    21:00 +26°C° 0.2 mm 1 mps 751 mmHg 78%
    22:00 +26°C° 0 mm 1 mps 751 mmHg 79%
    23:00 +26°C° 0 mm 1 mps 751 mmHg 79%

    Tomorrow, 25 February, Sunday

    Time Temperature Precipitation Wind Pressure Humidity
    00:00 +25°C° 0 mm 1 mps 751 mmHg 80%
    01:00 +25°C° 0 mm 1 mps 751 mmHg 80%
    02:00 +25°C° 0 mm 1 mps 751 mmHg 80%
    03:00 +24°C° 0 mm 2 mps 750 mmHg 80%
    04:00 +24°C° 0 mm 2 mps 751 mmHg 79%
    05:00 +24°C° 0 mm 2 mps 751 mmHg 78%
    06:00 +24°C° 0 mm 2 mps 751 mmHg 77%
    07:00 +26°C° 0 mm 2 mps 752 mmHg 68%
    08:00 +29°C° 0 mm 1 mps 752 mmHg 59%
    09:00 +31°C° 0 mm 1 mps 752 mmHg 50%
    10:00 +32°C° 0 mm 1 mps 752 mmHg 47%
    11:00 +35°C° 0 mm 2 mps 751 mmHg 44%
    12:00 +36°C° 0 mm 2 mps 751 mmHg 41%
    13:00 +35°C° 0 mm 2 mps 750 mmHg 46%
    14:00 +34°C° 0 mm 2 mps 750 mmHg 50%
    15:00 +31°C° 0 mm 3 mps 749 mmHg 55%
    16:00 +30°C° 0.1 mm 3 mps 749 mmHg 61%
    17:00 +29°C° 0.1 mm 3 mps 750 mmHg 67%
    18:00 +28°C° 0.1 mm 2 mps 750 mmHg 73%
    19:00 +27°C° 0 mm 2 mps 751 mmHg 75%
    20:00 +27°C° 0 mm 2 mps 751 mmHg 77%
    21:00 +26°C° 0 mm 2 mps 752 mmHg 80%
    22:00 +26°C° 0 mm 1 mps 752 mmHg 79%
    23:00 +25°C° 0 mm 1 mps 751 mmHg 79%

    Day after tomorrow, 26 February, Monday

    Time Temperature Precipitation Wind Pressure Humidity
    00:00 +25°C° 0 mm 1 mps 751 mmHg 79%
    01:00 +25°C° 0 mm 1 mps 751 mmHg 79%
    02:00 +25°C° 0 mm 1 mps 751 mmHg 79%
    03:00 +24°C° 0 mm 2 mps 750 mmHg 79%
    04:00 +24°C° 0 mm 2 mps 751 mmHg 78%
    05:00 +24°C° 0 mm 2 mps 751 mmHg 77%
    06:00 +24°C° 0 mm 2 mps 751 mmHg 76%
    07:00 +26°C° 0 mm 2 mps 752 mmHg 67%
    08:00 +29°C° 0 mm 1 mps 752 mmHg 58%
    09:00 +31°C° 0 mm 1 mps 753 mmHg 49%
    10:00 +32°C° 0 mm 1 mps 752 mmHg 47%
    11:00 +34°C° 0 mm 2 mps 752 mmHg 44%
    12:00 +36°C° 0 mm 2 mps 751 mmHg 42%
    13:00 +34°C° 0 mm 2 mps 750 mmHg 47%
    14:00 +32°C° 0 mm 2 mps 750 mmHg 52%
    15:00 +31°C° 0 mm 3 mps 749 mmHg 57%
    16:00 +30°C° 0 mm 2 mps 749 mmHg 62%
    17:00 +29°C° 0 mm 2 mps 750 mmHg 67%
    18:00 +28°C° 0 mm 2 mps 750 mmHg 72%
    19:00 +27°C° 0 mm 2 mps 750 mmHg 74%
    20:00 +27°C° 0 mm 2 mps 751 mmHg 76%
    21:00 +26°C° 0 mm 2 mps 752 mmHg 77%
    22:00 +26°C° 0 mm 2 mps 751 mmHg 77%
    23:00 +26°C° 0 mm 2 mps 751 mmHg 76%

    27 February, Tuesday

    Time Temperature Precipitation Wind Pressure Humidity
    00:00 +25°C° 0 mm 2 mps 751 mmHg 75%
    01:00 +25°C° 0 mm 2 mps 751 mmHg 75%
    02:00 +25°C° 0 mm 2 mps 750 mmHg 74%
    03:00 +24°C° 0 mm 2 mps 750 mmHg 74%
    04:00 +24°C° 0 mm 2 mps 750 mmHg 74%
    05:00 +24°C° 0 mm 2 mps 751 mmHg 73%
    06:00 +24°C° 0 mm 2 mps 751 mmHg 73%
    07:00 +27°C° 0 mm 2 mps 751 mmHg 64%
    08:00 +29°C° 0 mm 2 mps 752 mmHg 56%
    09:00 +31°C° 0 mm 2 mps 752 mmHg 48%
    10:00 +34°C° 0 mm 2 mps 752 mmHg 45%
    11:00 +35°C° 0 mm 2 mps 751 mmHg 43%
    12:00 +37°C° 0 mm 2 mps 750 mmHg 40%
    13:00 +35°C° 0 mm 2 mps 750 mmHg 44%
    14:00 +34°C° 0 mm 3 mps 749 mmHg 47%
    15:00 +33°C° 0 mm 3 mps 748 mmHg 51%
    16:00 +31°C° 0 mm 3 mps 749 mmHg 57%
    17:00 +29°C° 0 mm 2 mps 749 mmHg 63%
    18:00 +28°C° 0 mm 2 mps 749 mmHg 69%
    19:00 +27°C° 0 mm 2 mps 750 mmHg 71%
    20:00 +27°C° 0 mm 2 mps 750 mmHg 73%
    21:00 +26°C° 0 mm 2 mps 751 mmHg 75%
    22:00 +26°C° 0 mm 2 mps 751 mmHg 75%
    23:00 +25°C° 0 mm 2 mps 751 mmHg 75%

    28 February, Wednesday

    Time Temperature Precipitation Wind Pressure Humidity
    00:00 +25°C° 0 mm 2 mps 750 mmHg 74%
    01:00 +25°C° 0 mm 2 mps 750 mmHg 74%
    02:00 +25°C° 0 mm 2 mps 750 mmHg 73%
    03:00 +24°C° 0 mm 2 mps 749 mmHg 72%
    04:00 +24°C° 0 mm 2 mps 749 mmHg 71%
    05:00 +24°C° 0 mm 2 mps 750 mmHg 71%
    06:00 +24°C° 0 mm 2 mps 750 mmHg 70%
    07:00 +26°C° 0 mm 2 mps 750 mmHg 62%
    08:00 +29°C° 0 mm 2 mps 751 mmHg 54%
    09:00 +32°C° 0 mm 1 mps 751 mmHg 46%
    10:00 +33°C° 0 mm 1 mps 750 mmHg 44%
    11:00 +35°C° 0 mm 2 mps 750 mmHg 42%
    12:00 +36°C° 0 mm 2 mps 749 mmHg 40%
    13:00 +35°C° 0 mm 2 mps 749 mmHg 46%
    14:00 +33°C° 0 mm 3 mps 748 mmHg 51%
    15:00 +31°C° 0 mm 3 mps 748 mmHg 56%
    16:00 +30°C° 0 mm 3 mps 748 mmHg 61%
    17:00 +29°C° 0 mm 2 mps 748 mmHg 66%
    18:00 +28°C° 0 mm 2 mps 749 mmHg 72%
    19:00 +27°C° 0 mm 2 mps 749 mmHg 74%
    20:00 +27°C° 0 mm 1 mps 750 mmHg 75%
    21:00 +26°C° 0 mm 1 mps 750 mmHg 77%
    22:00 +26°C° 0 mm 1 mps 750 mmHg 78%
    23:00 +26°C° 0 mm 1 mps 750 mmHg 78%

    1 March, Thursday

    Time Temperature Precipitation Wind Pressure Humidity
    00:00 +25°C° 0 mm 1 mps 750 mmHg 79%
    01:00 +25°C° 0 mm 1 mps 749 mmHg 79%
    02:00 +25°C° 0 mm 1 mps 749 mmHg 79%
    03:00 +25°C° 0 mm 1 mps 749 mmHg 79%
    04:00 +24°C° 0 mm 1 mps 749 mmHg 78%
    05:00 +24°C° 0 mm 1 mps 749 mmHg 78%
    06:00 +24°C° 0 mm 2 mps 750 mmHg 78%
    07:00 +27°C° 0 mm 1 mps 750 mmHg 69%
    08:00 +29°C° 0 mm 1 mps 750 mmHg 60%
    09:00 +32°C° 0 mm 1 mps 751 mmHg 51%
    10:00 +32°C° 0 mm 1 mps 750 mmHg 48%
    11:00 +34°C° 0 mm 2 mps 750 mmHg 46%
    12:00 +35°C° 0 mm 2 mps 749 mmHg 44%
    13:00 +34°C° 0 mm 2 mps 749 mmHg 49%
    14:00 +33°C° 0 mm 3 mps 748 mmHg 53%
    15:00 +31°C° 0 mm 3 mps 748 mmHg 58%
    16:00 +30°C° 0 mm 3 mps 748 mmHg 63%
    17:00 +29°C° 0 mm 2 mps 748 mmHg 67%
    18:00 +28°C° 0 mm 2 mps 749 mmHg 72%
    19:00 +27°C° 0 mm 2 mps 749 mmHg 74%
    20:00 +27°C° 0 mm 2 mps 750 mmHg 76%
    21:00 +27°C° 0 mm 2 mps 750 mmHg 78%
    22:00 +26°C° 0 mm 2 mps 750 mmHg 78%
    23:00 +26°C° 0 mm 2 mps 750 mmHg 78%
    Show more